This is the latest recevied weather packets stored in our database for station/object KC5TIL-3. If no packets are shown the sender has not sent any weather packets the latest 10 day(s).
| Time | Temp. | Humidity | Pressure | Rain* | Wind** | Luminosity | Snow |
|---|---|---|---|---|---|---|---|
| 1777246618 | 28.33° C | 36% | 1002.8 hPa | 0 mm | 3.13 m/s, 160° | - | - |
| 1777246320 | 28.33° C | 37% | 1002.8 hPa | 0 mm | 3.58 m/s, 182° | - | - |
| 1777246021 | 28.33° C | 36% | 1002.8 hPa | 0 mm | 3.58 m/s, 174° | - | - |
| 1777245720 | 28.33° C | 36% | 1002.8 hPa | 0 mm | 3.13 m/s, 180° | - | - |
| 1777245418 | 28.89° C | 36% | 1002.8 hPa | 0 mm | 3.13 m/s, 133° | - | - |
| 1777245120 | 28.89° C | 36% | 1002.8 hPa | 0 mm | 4.02 m/s, 172° | - | - |
| 1777244818 | 28.33° C | 36% | 1002.8 hPa | 0 mm | 3.13 m/s, 133° | - | - |
| 1777244520 | 28.33° C | 36% | 1002.8 hPa | 0 mm | 4.02 m/s, 142° | - | - |
| 1777244221 | 28.33° C | 36% | 1002.8 hPa | 0 mm | 4.02 m/s, 195° | - | - |
| 1777243921 | 28.89° C | 35% | 1002.8 hPa | 0 mm | 3.13 m/s, 151° | - | - |
| 1777243324 | 28.33° C | 38% | 1002.8 hPa | 0 mm | 3.58 m/s, 115° | - | - |
| 1777243022 | 28.33° C | 39% | 1002.8 hPa | 0 mm | 3.58 m/s, 117° | - | - |
| 1777242426 | 28.33° C | 39% | 1002.8 hPa | 0 mm | 3.58 m/s, 164° | - | - |
| 1777241529 | 28.33° C | 39% | 1002.8 hPa | 0 mm | 2.68 m/s, 146° | - | - |
| 1777241219 | 28.33° C | 38% | 1003.8 hPa | 0 mm | 3.58 m/s, 183° | - | - |
| 1777240921 | 28.33° C | 39% | 1003.8 hPa | 0 mm | 1.79 m/s, 199° | - | - |
| 1777240617 | 28.33° C | 38% | 1003.8 hPa | 0 mm | 4.02 m/s, 183° | - | - |
| 1777240317 | 28.33° C | 38% | 1003.8 hPa | 0 mm | 2.68 m/s, 191° | - | - |
| 1777240019 | 28.33° C | 39% | 1003.8 hPa | 0 mm | 4.02 m/s, 209° | - | - |
| 1777239720 | 28.33° C | 39% | 1003.8 hPa | 0 mm | 2.68 m/s, 198° | - | - |
| 1777239121 | 27.78° C | 40% | 1003.8 hPa | 0 mm | 4.02 m/s, 197° | - | - |
| 1777238521 | 27.78° C | 40% | 1003.8 hPa | 0 mm | 3.13 m/s, 132° | - | - |
| 1777237925 | 28.33° C | 40% | 1003.8 hPa | 0 mm | 4.02 m/s, 189° | - | - |
| 1777237027 | 28.33° C | 40% | 1003.8 hPa | 0 mm | 3.13 m/s, 126° | - | - |
| 1777236428 | 28.33° C | 40% | 1004.8 hPa | 0 mm | 1.79 m/s, 195° | - | - |
* Rain latest hour (hover to see other rain measurements)
** Current wind speed in m/s (hover to see current wind gust speed)